McCook, NE

5:22 AM CDT on May 27, 2018 (GMT -0500)
McCook Municipal

Weather History for KMCK - September, 2013

Change the Weather History Date:

Saturday, September 28, 2013

  Actual Average Record
Temperature  
Mean Temperature 57 °F 59 °F  
Max Temperature 70 °F 74 °F 96 °F (1953)
Min Temperature 44 °F 43 °F 29 °F (1951)
Degree Days  
Heating Degree Days 8    
Growing Degree Days 6 (Base 50)    
Moisture  
Dew Point 40 °F    
Average Humidity 61    
Maximum Humidity 90    
Minimum Humidity 27    
Precipitation  
Precipitation 0.00 in 0.05 in 1.55 in (1973)
Month to date precipitation 2.35 1.35  
Year to date precipitation 11.52 19.06  
Sea Level Pressure  
Sea Level Pressure 30.02 in    
Wind  
Wind Speed 14 mph (WNW)    
Max Wind Speed 22 mph    
Max Gust Speed 30 mph    
Visibility 10 miles    
Events      
T = Trace of Precipitation, MM = Missing Value Source: NWS Daily Summary

Daily Weather History Graph

Daily Weather History Graph

Search for Another Location

Airport or City:

Astronomy

Sep. 28, 2013 Rise Set
Actual Time 7:36 AM CDT 7:29 PM CDT
Civil Twilight 7:08 AM CDT 7:56 PM CDT
Nautical Twilight 6:37 AM CDT 8:27 PM CDT
Astronomical Twilight 6:05 AM CDT 8:59 PM CDT
Moon 1:24 AM CDT (9/28) 3:49 PM CDT (9/28)
Length of Visible Light 12h 47m
Length of Day
11h 52m
Waning Crescent, 36% of the Moon is Illuminated
Sep 28
Waning Crescent
Oct 4
New
Oct 11
First Quarter
Oct 18
Full
Oct 26
Last Quarter

Hourly Weather History & Observations

Time (CDT) Temp. Windchill Dew Point Humidity Pressure Visibility Wind Dir Wind Speed Gust Speed Precip Events Conditions
12:01 AM 50.0 °F - 46.4 °F 87% 29.88 in 10.0 mi NW 21.9 mph 29.9 mph N/A   Overcast
12:33 AM 50.0 °F - 44.6 °F 82% 29.88 in 10.0 mi NW 19.6 mph 27.6 mph N/A   Overcast
12:53 AM 50.0 °F - 46.0 °F 86% 29.88 in 10.0 mi NNW 18.4 mph - N/A   Overcast
1:53 AM 50.0 °F - 45.0 °F 83% 29.92 in 10.0 mi NW 15.0 mph 21.9 mph N/A   Overcast
2:53 AM 50.0 °F - 44.1 °F 80% 29.91 in 10.0 mi NNW 13.8 mph - N/A   Overcast
3:53 AM 48.9 °F - 44.1 °F 83% 29.93 in 10.0 mi WNW 10.4 mph - N/A   Mostly Cloudy
4:53 AM 46.9 °F - 42.1 °F 83% 29.95 in 10.0 mi NW 12.7 mph - N/A   Clear
5:53 AM 45.0 °F 41.2 °F 42.1 °F 90% 29.98 in 10.0 mi WNW 6.9 mph - N/A   Clear
6:53 AM 45.0 °F 39.7 °F 41.0 °F 86% 30.01 in 10.0 mi West 10.4 mph - N/A   Clear
7:53 AM 44.1 °F 39.0 °F 39.9 °F 85% 30.04 in 10.0 mi WNW 9.2 mph - N/A   Clear
8:53 AM 46.9 °F - 39.9 °F 77% 30.06 in 10.0 mi West 11.5 mph - N/A   Clear
9:53 AM 51.1 °F - 39.9 °F 66% 30.08 in 10.0 mi WNW 17.3 mph 23.0 mph N/A   Clear
10:53 AM 55.0 °F - 39.9 °F 57% 30.09 in 10.0 mi WNW 15.0 mph 23.0 mph N/A   Clear
11:53 AM 60.1 °F - 37.9 °F 44% 30.09 in 10.0 mi NW 17.3 mph 24.2 mph N/A   Clear
12:53 PM 62.1 °F - 37.0 °F 39% 30.09 in 10.0 mi WNW 13.8 mph 21.9 mph N/A   Clear
1:53 PM 64.9 °F - 36.0 °F 34% 30.07 in 10.0 mi WNW 11.5 mph 25.3 mph N/A   Clear
2:53 PM 66.9 °F - 35.1 °F 31% 30.06 in 10.0 mi NW 19.6 mph 26.5 mph N/A   Clear
3:53 PM 68.0 °F - 34.0 °F 28% 30.05 in 10.0 mi WNW 15.0 mph 23.0 mph N/A   Clear
4:53 PM 69.1 °F - 35.1 °F 29% 30.04 in 10.0 mi WNW 10.4 mph 17.3 mph N/A   Clear
5:53 PM 69.1 °F - 34.0 °F 27% 30.05 in 10.0 mi WNW 9.2 mph - N/A   Clear
6:53 PM 66.9 °F - 35.1 °F 31% 30.05 in 10.0 mi WNW 3.5 mph - N/A   Clear
7:53 PM 62.1 °F - 37.0 °F 39% 30.07 in 10.0 mi South 4.6 mph - N/A   Clear
8:53 PM 57.9 °F - 37.9 °F 47% 30.07 in 10.0 mi SSW 4.6 mph - N/A   Clear
9:53 PM 53.1 °F - 39.9 °F 61% 30.09 in 10.0 mi Calm Calm - N/A   Clear
10:53 PM 50.0 °F - 41.0 °F 71% 30.09 in 10.0 mi SW 8.1 mph - N/A   Clear
11:53 PM 50.0 °F - 39.9 °F 68% 30.09 in 10.0 mi WSW 8.1 mph - N/A   Clear